DW4174 Weather Reports


time (UTC)temp
C
wind
direction
speed
KPH
gust
KPH
rain 1hr
cm
rain 24hr
cm
rain mn
cm
humidity
%
barometer
mb
20260509052932 28 0 0.0 0.0 0.00 0.00 0.00 21 1007.1
20260509052032 28 0 0.0 0.0 0.00 0.00 0.00 20 1007.1
20260509051132 29 238 0.0 1.6 0.00 0.00 0.00 19 1007.1
20260509050232 30 238 0.0 8.0 0.00 0.00 0.00 18 1007.1
20260509045332 30 236 1.6 4.8 0.00 0.00 0.00 18 1007.1
20260509044432 30 232 0.0 4.8 0.00 0.00 0.00 18 1007.0
20260509042631 32 242 6.4 12.9 0.00 0.00 0.00 16 1006.9
20260509041732 32 244 6.4 12.9 0.00 0.00 0.00 16 1006.8
20260509040832 32 246 3.2 12.9 0.00 0.00 0.00 16 1006.7
20260509021715 35 257 8.0 14.5 0.00 0.00 0.00 12 1005.4
20260509020815 35 253 8.0 14.5 0.00 0.00 0.00 12 1005.3
20260509014115 36 262 12.9 19.3 0.00 0.00 0.00 11 1005.2
20260509012113 36 261 14.5 20.9 0.00 0.00 0.00 11 1005.2
20260509011213 37 280 14.5 20.9 0.00 0.00 0.00 11 1005.4
20260509010313 37 278 11.3 27.4 0.00 0.00 0.00 11 1005.5
20260509005413 37 253 12.9 19.3 0.00 0.00 0.00 11 1005.4
20260509004513 37 264 12.9 22.5 0.00 0.00 0.00 11 1005.5
20260509003613 37 272 11.3 24.1 0.00 0.00 0.00 11 1005.6
20260509002713 38 268 12.9 22.5 0.00 0.00 0.00 11 1005.7
20260509001813 37 267 14.5 22.5 0.00 0.00 0.00 11 1005.7
20260509000913 37 277 12.9 24.1 0.00 0.00 0.00 11 1005.8
20260509000013 37 288 14.5 22.5 0.00 0.00 0.00 11 1005.8
20260508235113 38 270 14.5 22.5 0.00 0.00 0.00 11 1005.9
20260508233313 38 276 16.1 27.4 0.00 0.00 0.00 10 1006.0
20260508232413 38 283 16.1 25.7 0.00 0.00 0.00 10 1006.2
20260508231513 38 286 14.5 27.4 0.00 0.00 0.00 11 1006.3
20260508230613 38 272 16.1 30.6 0.00 0.00 0.00 11 1006.2
20260508225713 38 256 14.5 30.6 0.00 0.00 0.00 11 1006.3
20260508224813 38 268 16.1 27.4 0.00 0.00 0.00 11 1006.4
20260508223913 38 280 14.5 27.4 0.00 0.00 0.00 11 1006.6
20260508223013 38 288 14.5 27.4 0.00 0.00 0.00 12 1006.7
20260508222113 38 279 16.1 27.4 0.00 0.00 0.00 11 1006.8
20260508221213 38 284 16.1 25.7 0.00 0.00 0.00 11 1007.0
20260508220313 38 297 14.5 29.0 0.00 0.00 0.00 11 1007.2
20260508215413 38 270 12.9 25.7 0.00 0.00 0.00 11 1007.4
20260508214513 38 271 12.9 24.1 0.00 0.00 0.00 12 1007.6
20260508213613 37 265 12.9 22.5 0.00 0.00 0.00 12 1007.8
20260508212713 38 261 11.3 27.4 0.00 0.00 0.00 12 1008.0
20260508211813 38 274 9.7 20.9 0.00 0.00 0.00 12 1008.1
20260508210912 37 285 12.9 24.1 0.00 0.00 0.00 12 1008.2
20260508210013 37 276 12.9 24.1 0.00 0.00 0.00 12 1008.4
20260508204213 36 307 6.4 16.1 0.00 0.00 0.00 13 1008.7
20260508203312 36 277 8.0 16.1 0.00 0.00 0.00 14 1008.8
20260508201513 35 184 6.4 19.3 0.00 0.00 0.00 14 1009.1
20260508200613 35 196 4.8 14.5 0.00 0.00 0.00 15 1009.3
20260508195713 36 199 3.2 11.3 0.00 0.00 0.00 15 1009.4
20260508194812 34 167 4.8 11.3 0.00 0.00 0.00 15 1009.4
20260508193914 35 212 4.8 11.3 0.00 0.00 0.00 14 1009.6
20260508193013 34 216 6.4 14.5 0.00 0.00 0.00 15 1009.9
20260508192112 36 227 6.4 20.9 0.00 0.00 0.00 14 1010.0
20260508191213 34 192 3.2 9.7 0.00 0.00 0.00 16 1010.1
20260508190313 33 195 6.4 11.3 0.00 0.00 0.00 16 1010.3
20260508185413 34 257 6.4 17.7 0.00 0.00 0.00 15 1010.4
20260508183612 32 193 3.2 11.3 0.00 0.00 0.00 17 1010.6
20260508182712 32 250 4.8 9.7 0.00 0.00 0.00 17 1010.7
20260508181812 32 243 4.8 11.3 0.00 0.00 0.00 16 1010.8
20260508180913 32 189 4.8 12.9 0.00 0.00 0.00 17 1011.0
20260508180012 32 213 3.2 9.7 0.00 0.00 0.00 19 1011.0
20260508174212 31 160 4.8 9.7 0.00 0.00 0.00 19 1011.2
20260508173312 31 204 3.2 9.7 0.00 0.00 0.00 20 1011.3
20260508172412 30 129 4.8 9.7 0.00 0.00 0.00 20 1011.3
20260508171512 30 173 4.8 9.7 0.00 0.00 0.00 21 1011.5
20260508170612 30 169 3.2 11.3 0.00 0.00 0.00 21 1011.5
20260508165712 30 144 4.8 11.3 0.00 0.00 0.00 22 1011.5
20260508164812 29 138 4.8 9.7 0.00 0.00 0.00 22 1011.6
20260508163912 28 109 4.8 11.3 0.00 0.00 0.00 22 1011.7
20260508162112 28 155 4.8 16.1 0.00 0.00 0.00 23 1011.6
20260508161212 28 129 4.8 8.0 0.00 0.00 0.00 24 1011.6
20260508160312 27 156 4.8 11.3 0.00 0.00 0.00 24 1011.6
20260508155412 27 163 4.8 12.9 0.00 0.00 0.00 24 1011.6
20260508153612 26 132 4.8 12.9 0.00 0.00 0.00 25 1011.6
20260508152712 26 137 4.8 12.9 0.00 0.00 0.00 26 1011.6
20260508151812 26 117 4.8 9.7 0.00 0.00 0.00 26 1011.7
20260508150912 26 125 4.8 9.7 0.00 0.00 0.00 26 1011.8
20260508150012 25 128 6.4 11.3 0.00 0.00 0.00 27 1011.8
20260508145112 25 123 6.4 11.3 0.00 0.00 0.00 27 1011.9
20260508144212 25 102 6.4 12.9 0.00 0.00 0.00 28 1011.8
20260508143312 25 96 4.8 11.3 0.00 0.00 0.00 28 1011.8
20260508142412 24 103 6.4 14.5 0.00 0.00 0.00 29 1011.7
20260508141513 23 106 6.4 12.9 0.00 0.00 0.00 29 1011.7
20260508140612 23 105 6.4 12.9 0.00 0.00 0.00 29 1011.6
20260508135712 22 106 4.8 11.3 0.00 0.00 0.00 30 1011.5
20260508134812 22 112 3.2 9.7 0.00 0.00 0.00 30 1011.4
20260508133912 22 106 4.8 11.3 0.00 0.00 0.00 31 1011.2
20260508133013 21 107 4.8 12.9 0.00 0.00 0.00 31 1011.0
20260508132113 21 106 4.8 11.3 0.00 0.00 0.00 32 1011.0
20260508131212 21 111 4.8 11.3 0.00 0.00 0.00 32 1010.8
20260508130312 21 112 6.4 12.9 0.00 0.00 0.00 32 1010.6
20260508125412 21 109 6.4 14.5 0.00 0.00 0.00 32 1010.5
20260508124512 21 121 4.8 16.1 0.00 0.00 0.00 32 1010.3
20260508122712 21 153 4.8 11.3 0.00 0.00 0.00 32 1010.2
20260508121812 21 116 6.4 12.9 0.00 0.00 0.00 32 1010.0
20260508120912 21 110 4.8 14.5 0.00 0.00 0.00 32 1010.1
20260508120012 21 113 4.8 12.9 0.00 0.00 0.00 32 1010.0
20260508115112 21 114 3.2 11.3 0.00 0.00 0.00 33 1010.1
20260508114212 21 104 3.2 11.3 0.00 0.00 0.00 33 1010.0
20260508113312 21 117 1.6 6.4 0.00 0.00 0.00 33 1009.9
20260508112412 21 111 1.6 4.8 0.00 0.00 0.00 33 1010.0
20260508111512 21 111 3.2 6.4 0.00 0.00 0.00 32 1009.9
20260508105712 21 129 3.2 9.7 0.00 0.00 0.00 32 1009.9
20260508104812 21 120 3.2 11.3 0.00 0.00 0.00 31 1009.9
20260508103912 21 116 1.6 9.7 0.00 0.00 0.00 32 1009.8
20260508103012 21 115 3.2 9.7 0.00 0.00 0.00 32 1009.9
20260508102112 21 116 1.6 9.7 0.00 0.00 0.00 32 1009.8
20260508101212 21 116 3.2 6.4 0.00 0.00 0.00 32 1009.7
20260508095412 21 115 4.8 12.9 0.00 0.00 0.00 30 1009.6
20260508094512 22 107 6.4 14.5 0.00 0.00 0.00 29 1009.5
20260508093612 22 112 4.8 14.5 0.00 0.00 0.00 28 1009.6
20260508092712 22 110 4.8 12.9 0.00 0.00 0.00 27 1009.6
20260508091812 22 114 6.4 11.3 0.00 0.00 0.00 25 1009.5
20260508090912 22 104 8.0 16.1 0.00 0.00 0.00 24 1009.5
20260508085112 22 96 6.4 14.5 0.00 0.00 0.00 21 1009.6
20260508084212 22 92 4.8 11.3 0.00 0.00 0.00 22 1009.6
20260508083312 22 97 1.6 11.3 0.00 0.00 0.00 23 1009.7
20260508080612 22 0 0.0 0.0 0.00 0.00 0.00 25 1009.6
20260508074812 23 108 3.2 4.8 0.00 0.00 0.00 23 1009.7
20260508073911 23 107 3.2 6.4 0.00 0.00 0.00 23 1009.7
20260508073013 23 99 3.2 6.4 0.00 0.00 0.00 23 1009.6
20260508072112 23 91 3.2 6.4 0.00 0.00 0.00 23 1009.4
20260508070311 24 100 3.2 6.4 0.00 0.00 0.00 22 1009.4
20260508065411 24 113 3.2 6.4 0.00 0.00 0.00 22 1009.3
20260508064511 23 246 0.0 6.4 0.00 0.00 0.00 23 1009.2
20260508063611 23 0 0.0 0.0 0.00 0.00 0.00 23 1009.3
20260508062711 23 261 0.0 3.2 0.00 0.00 0.00 23 1009.4
20260508061811 23 0 0.0 0.0 0.00 0.00 0.00 23 1009.4
20260508060911 23 0 0.0 0.0 0.00 0.00 0.00 23 1009.3
20260508060011 24 0 0.0 0.0 0.00 0.00 0.00 21 1009.3
20260508054212 24 0 0.0 0.0 0.00 0.00 0.00 21 1009.3